Find GPS III SV07

NORAD ID: 62339 Int'l Des: 2024-242 Owner: SFSSC Country: US Constellation: GPS operational
MEOCIRCULARGNSS

Live-Position

3D-Globus wird geladen...

Über GPS III SV07

Beschreibung wird geladen...

Nächste Überflüge

Passes for default location (London). Set your location on the main map for personalized predictions.

Höhenverlauf

Loading altitude history...

Zweizeiliger Elementsatz

1 62339U 24242A 26120.47709787 -.00000091 00000-0 00000+0 0 9997
2 62339 54.8684 336.1155 0016941 2.8740 355.8074 2.00570893 10294
Epoch: 30. Apr. 2026 • Age: 26 hours

Aktueller Status

Höhe 20164.4 km
Geschwindigkeit 3.88 km/s
Subsatellitenpunkt 46.56°N, 37.97°W
Startdatum 17. Dez. 2024
Alter 1.3 years
Typ navigation

Technische Details

Klassifizierung Payload
Masse 4352.00 kg
Trockenmasse 2160.00 kg
Gesamtmasse 4352.00 kg
Länge 3.40 m
Durchmesser 1.80 m
Spannweite 14.00 m
Form Box + 2 pan
Hersteller LMSSD
Bus-Typ A2100
Phasenstatus In Orbit
Besitzer/Staat SFSSC/US

Most Searched